Regional Weather Roundup
Issued by NWS

Home | Current Version | Previous Version | Graphics & Text | Print | Product List | Glossary On
Versions: 1 2 3 4 5 6 7 8 9 10 11 12 13 14 15 16 17 18 19 20 21 22 23 24 25 26 27 28 29 30 31 32 33 34 35 36 37 38 39 40 41 42 43 44 45 46 47 48 49 50
000
ASUS44 KMEG 050700
RWRTN
TENNESSEE HOURLY STATE WEATHER ROUNDUP
NATIONAL WEATHER SERVICE MEMPHIS TN
100 AM CST THU MAR 05 2015

TNZ002-004-019-021-049-052-054-088>092-050800-
WEST TENNESSEE

CITY           SKY/WX    TMP DP  RH WIND       PRES   REMARKS
MEMPHIS INTL   LGTSLEET  24  20  84 N16G22    30.24R FOG     WCI  11
NWS MEMPHIS      N/A     23 N/A N/A MISG        N/A
JACKSON        LGT SNOW  22  18  85 NE22      30.20S FOG     WCI   6
DYERSBURG      CLOUDY    19   7  58 N16G30    30.29S WCI   5
UNION CITY     CLOUDY    18  18 100 N14       30.26F WCI   4
PARIS          CLOUDY    16  14  93 N10       30.24S WCI   3
LEXINGTON      CLOUDY    21  19  93 N13       30.16R WCI   9
SAVANNAH       CLOUDY    27  27 100 N16       30.14R WCI  14
$$

TNZ008-025-027-028-033-062-065-066-050800-
NORTH MIDDLE TENNESSEE

CITY           SKY/WX    TMP DP  RH WIND       PRES   REMARKS
NASHVILLE      FRZ DRZL  25  23  92 N13       30.15F WCI  14
CLARKSVILLE    LGT SNOW  20  17  88 N21       30.24R VSB 3/4 WCI   4
COOKEVILLE     CLOUDY    32  30  93 NE10      30.04F WCI  24
CROSSVILLE     LGT RAIN  34  31  88 NE13      29.99F FOG     WCI  25
$$

TNZ061-075-076-078-094-096-097-050800-
SOUTH MIDDLE TENNESSEE

CITY           SKY/WX    TMP DP  RH WIND       PRES   REMARKS
FAYETTEVILLE     N/A     30  28  93 N15         N/A  WCI  19
TULLAHOMA      CLOUDY    30  30 100 N7        30.02F WCI  23
WINCHESTER     CLOUDY    34  34 100 N9        30.03S WCI  26
COLUMBIA       CLOUDY   N/A N/A N/A N8        30.12R
SHELBYVILLE    CLOUDY    30  30 100 N9        30.08S WCI  22
$$

TNZ017-018-042-046-047-050800-
NORTHEAST TENNESSEE

CITY           SKY/WX    TMP DP  RH WIND       PRES   REMARKS
TRI CITIES     CLOUDY    42  40  92 N5        29.94F
ELIZABETHTON   CLOUDY    41  41 100 CALM      29.93F
$$

TNZ012-013-036-069-073-074-050800-
CENTRAL EAST TENNESSEE

CITY           SKY/WX    TMP DP  RH WIND       PRES   REMARKS
KNOXVILLE      LGT RAIN  39  37  92 N15       29.98S WCI  31
OAK RIDGE      LGT RAIN  40  38  93 NE5       30.01R FOG
GATLINBURG     CLOUDY    41  39  93 N6        29.95S
$$

TNZ083-085-099-050800-
SOUTHEAST TENNESSEE

CITY           SKY/WX    TMP DP  RH WIND       PRES   REMARKS
CHATTANOOGA    HVY RAIN  43  40  89 N10       29.97S FOG
$$

SKY/WX REPORTED AS FAIR MEANS FEW OR NO CLOUDS BELOW
12 THOUSAND FEET.




USA.gov is the U.S. government's official web portal to all federal, state and local government web resources and services.